Torna al catalogo

STARLINK-37111

AttivoComunicazioniSSO
NORAD 68381·PAYLOAD·🇺🇸 United States

Lanciato Mar 26, 2026 da Vandenberg Space Force Base

Loading…

Prossimi Passaggi (prossime 24 ore)

TLE

AggiornatoSource: CelesTrak SupGP

Epoca: Sep 14, 2026, 23:16 UTC

1 68381C 26063B   26257.96993056 -.00034489  00000+0 -10703-2 0  2571
2 68381  97.2860  38.8687 0001208 101.1464  68.0110 15.33467703    14

Traccia STARLINK-37111 in tempo reale con AllMySat

Download on the App Store